ARIANE 2 DEB, 28565

Orbit data source: Space-Track

ARIANE 2 DEB, 28565 is space debris in HEO originally from a launch on Fri, 27 Jan 1989 UTC launched from the French Guiana (FRGUI). Debris objects in space refer to the collection of defunct objects orbiting the Earth. Examples of debris include non-operational satellites, rocket bodies, and fragments generated from explosions, collisions, or faulty payload assembly.

Loading next visibility...
Identifier
28565, 1989-006AG
Orbit
HEO
Country
Flag of FRFR
Related business
Manufacturer
EADS/LV
Mission
Spacecraft
Bus & Motor
Unknown
Mass
Unknown
Launch date (UTC)
1989-01-27 (37 years ago)
Launch vehicle
Unknown
Launch site
French Guiana (FRGUI)
Object type
Payload
Rocket body
Debris
Shape & HBR
Unknown shape, 0.3 m
Radar Cross Section
Medium (>0.1 m² and <1 m²)

Expand to show TLE details & history
Last TLE update: 21 hours ago

TLE from 21 hours ago
0 ARIANE 2 DEB
1 28565U 89006AG  25286.29777477  .00002150  00000-0  11640-1 0  9993
2 28565   8.3076  45.6779 7098017 138.2377 306.4038  2.39223620184683
Epoch: 2025-10-13T07:08Z
TLE epoch observation values (Epoch: 2025-10-13T07:08:47.740Z)
Latitude
0.00001°
Longitude
-83.57315°
Altitude
18,490.834 km
Speed
3.896 km/s
True Right ascension
03h 02m 54s
True Declination
0° 00' 00"
Sunlit
Object was in daylight at epoch
Visualization orbit readout
Latitude
Unknown
Longitude
Unknown
Altitude
Unknown
Speed
Unknown
Apparent Right ascension
Unknown
Apparent Declination
Unknown
Sunlit
N/A
Visualization observer readout
Local Sidereal Time
22:31:39
Azimuth
Unknown
Elevation
Unknown
Doppler factor
Unknown
Orbital elements
Apogee altitude
34,008.734 km
Perigee altitude
476.577 km
Semi-major axis
23,620.792 km
Eccentricity
0.7098
Inclination
8.3076°
RAAN
45.6779°
Arg. of periapsis
138.2377°
True anomaly
221.92535°
Mean anomaly
306.4038°
Eccentric anomaly
265.84219°
Mean motion
0.59786 °/min
Orbital period
602.14 mins
BSTAR
0.01164
Loading maneuver chart data...
Computing Atmospheric mass density...
Loading historical data...
Loading historical data...
Loading historical data...
Loading historical data...
Loading historical data...
Loading historical data...
Loading historical data...

Documentation

Showing up to 5 results
|